Time,TemperatureF,DewpointF,PressureIn,WindDirection,WindDirectionDegrees,WindSpeedMPH,WindSpeedGustMPH,Humidity,HourlyPrecipIn,Conditions,Clouds,dailyrainin,SoftwareType,DateUTC
2013-04-14 00:00:00,70.5,69.1,29.96,SSE,157,0.0,0.0,95,0.00,,,0.00,meteohub,2013-04-14 04:00:00,
2013-04-14 00:05:00,70.3,69.1,29.96,SSE,157,0.0,0.0,96,0.00,,,0.00,meteohub,2013-04-14 04:05:00,
2013-04-14 00:10:00,70.5,69.3,29.96,SSE,157,0.0,0.0,96,0.00,,,0.00,meteohub,2013-04-14 04:10:00,
2013-04-14 00:15:00,70.5,69.3,29.96,SSE,157,0.0,0.0,96,0.00,,,0.00,meteohub,2013-04-14 04:15:00,
2013-04-14 00:20:00,70.3,69.1,29.96,SSE,157,0.0,0.0,96,0.00,,,0.00,meteohub,2013-04-14 04:20:00,
2013-04-14 00:25:00,70.3,69.1,29.96,SSE,157,0.0,0.0,96,0.00,,,0.00,meteohub,2013-04-14 04:25:00,
2013-04-14 00:30:00,70.3,69.1,29.96,SSE,157,0.0,0.0,96,0.00,,,0.00,meteohub,2013-04-14 04:30:00,
2013-04-14 00:35:00,70.3,69.1,29.96,SSE,157,0.0,0.0,96,0.00,,,0.00,meteohub,2013-04-14 04:35:00,
2013-04-14 00:40:00,70.3,69.4,29.96,SSE,157,0.0,0.0,97,0.00,,,0.00,meteohub,2013-04-14 04:40:00,
2013-04-14 00:45:00,70.3,69.1,29.96,SSE,157,0.0,0.0,96,0.00,,,0.00,meteohub,2013-04-14 04:45:00,
2013-04-14 00:50:00,70.2,68.9,29.96,SSE,157,0.0,0.0,96,0.00,,,0.00,meteohub,2013-04-14 04:50:00,
2013-04-14 00:55:00,70.3,69.4,29.96,SSE,157,0.0,0.0,97,0.00,,,0.00,meteohub,2013-04-14 04:55:00,
2013-04-14 01:00:00,70.2,69.3,29.96,SSE,157,0.0,0.0,97,0.00,,,0.00,meteohub,2013-04-14 05:00:00,
2013-04-14 01:05:00,70.3,69.4,29.96,SSE,157,0.0,0.0,97,0.00,,,0.00,meteohub,2013-04-14 05:05:00,
2013-04-14 01:10:00,70.3,69.4,29.96,SSE,157,0.0,0.0,97,0.00,,,0.00,meteohub,2013-04-14 05:10:00,
2013-04-14 01:15:00,70.3,69.4,29.96,SSE,157,0.0,0.0,97,0.00,,,0.00,meteohub,2013-04-14 05:15:00,
2013-04-14 01:20:00,70.3,69.4,29.96,SSE,157,0.0,0.0,97,0.00,,,0.00,meteohub,2013-04-14 05:20:00,
2013-04-14 01:25:00,70.3,69.4,29.96,SSE,157,0.0,0.0,97,0.00,,,0.00,meteohub,2013-04-14 05:25:00,
2013-04-14 01:30:00,70.3,69.4,29.96,SSE,157,0.0,0.0,97,0.00,,,0.00,meteohub,2013-04-14 05:30:00,
2013-04-14 01:35:00,70.3,69.4,29.96,SSE,157,0.0,0.0,97,0.00,,,0.00,meteohub,2013-04-14 05:35:00,
2013-04-14 01:41:00,70.7,70.2,29.96,SSE,157,0.0,0.0,98,0.00,,,0.00,meteohub,2013-04-14 05:41:00,
2013-04-14 01:46:00,70.9,70.0,29.96,SSE,157,0.0,0.0,97,0.00,,,0.00,meteohub,2013-04-14 05:46:00,
2013-04-14 01:51:00,71.1,70.5,29.96,SSE,157,0.0,0.0,98,0.00,,,0.00,meteohub,2013-04-14 05:51:00,
2013-04-14 01:56:00,71.2,70.7,29.95,SSE,157,0.0,0.0,98,0.00,,,0.00,meteohub,2013-04-14 05:56:00,
2013-04-14 02:01:00,71.2,70.7,29.95,SSE,157,0.0,0.0,98,0.00,,,0.00,meteohub,2013-04-14 06:01:00,
2013-04-14 02:06:00,71.2,70.7,29.95,SSE,157,0.0,0.0,98,0.00,,,0.00,meteohub,2013-04-14 06:06:00,
2013-04-14 02:11:00,71.4,70.9,29.95,SSE,157,0.0,0.0,98,0.00,,,0.00,meteohub,2013-04-14 06:11:00,
2013-04-14 02:16:00,71.4,70.9,29.95,SSE,157,0.0,0.0,98,0.00,,,0.00,meteohub,2013-04-14 06:16:00,
2013-04-14 02:21:00,71.6,71.1,29.95,SSE,157,0.0,1.0,98,0.00,,,0.00,meteohub,2013-04-14 06:21:00,
2013-04-14 02:26:00,72.5,72.0,29.95,SSE,157,0.0,1.0,98,0.00,,,0.00,meteohub,2013-04-14 06:26:00,
2013-04-14 02:32:00,73.2,72.9,29.95,SSE,157,1.0,1.0,99,0.00,,,0.00,meteohub,2013-04-14 06:32:00,
2013-04-14 02:37:00,73.9,73.6,29.95,SSE,157,0.0,1.0,99,0.00,,,0.00,meteohub,2013-04-14 06:37:00,
2013-04-14 02:42:00,74.3,73.9,29.94,SSE,157,0.0,1.0,99,0.00,,,0.00,meteohub,2013-04-14 06:42:00,
2013-04-14 02:47:00,74.7,74.3,29.94,SE,146,0.0,2.0,99,0.00,,,0.00,meteohub,2013-04-14 06:47:00,
2013-04-14 02:52:00,74.8,74.5,29.94,SSE,156,0.0,3.0,99,0.00,,,0.00,meteohub,2013-04-14 06:52:00,
2013-04-14 02:57:00,74.8,74.3,29.94,SE,142,0.0,3.0,98,0.00,,,0.00,meteohub,2013-04-14 06:57:00,
2013-04-14 03:02:00,74.8,74.3,29.94,SSE,164,1.0,4.0,98,0.00,,,0.00,meteohub,2013-04-14 07:02:00,
2013-04-14 03:07:00,74.8,74.3,29.94,SSE,157,0.0,5.0,98,0.00,,,0.00,meteohub,2013-04-14 07:07:00,
2013-04-14 03:12:00,74.8,73.9,29.94,South,180,0.0,5.0,97,0.00,,,0.00,meteohub,2013-04-14 07:12:00,
2013-04-14 03:17:00,74.7,73.8,29.94,South,176,1.0,5.0,97,0.00,,,0.00,meteohub,2013-04-14 07:17:00,
2013-04-14 03:22:00,74.7,73.8,29.94,SE,146,1.0,5.0,97,0.00,,,0.00,meteohub,2013-04-14 07:22:00,
2013-04-14 03:27:00,74.7,73.8,29.94,South,171,0.0,5.0,97,0.00,,,0.00,meteohub,2013-04-14 07:27:00,
2013-04-14 03:32:00,74.7,73.8,29.94,South,185,3.0,5.0,97,0.00,,,0.00,meteohub,2013-04-14 07:32:00,
2013-04-14 03:37:00,74.7,73.4,29.94,South,180,2.0,7.0,96,0.00,,,0.00,meteohub,2013-04-14 07:37:00,
2013-04-14 03:42:00,74.8,73.6,29.94,SSE,147,0.0,7.0,96,0.00,,,0.00,meteohub,2013-04-14 07:42:00,
2013-04-14 03:47:00,74.8,73.2,29.94,SE,138,1.0,7.0,95,0.00,,,0.00,meteohub,2013-04-14 07:47:00,
2013-04-14 03:52:00,74.8,73.2,29.94,SSW,196,0.0,6.0,95,0.00,,,0.00,meteohub,2013-04-14 07:52:00,
2013-04-14 03:57:00,74.8,73.2,29.93,SSE,153,0.0,5.0,95,0.00,,,0.00,meteohub,2013-04-14 07:57:00,
2013-04-14 04:02:00,74.8,73.2,29.93,SSE,155,0.0,3.0,95,0.00,,,0.00,meteohub,2013-04-14 08:02:00,
2013-04-14 04:07:00,75.0,73.4,29.93,SE,130,2.0,3.0,95,0.00,,,0.00,meteohub,2013-04-14 08:07:00,
2013-04-14 04:12:00,75.0,73.4,29.93,South,190,0.0,4.0,95,0.00,,,0.00,meteohub,2013-04-14 08:12:00,
2013-04-14 04:17:00,75.0,73.4,29.93,South,190,0.0,4.0,95,0.00,,,0.00,meteohub,2013-04-14 08:17:00,
2013-04-14 04:22:00,75.2,73.6,29.93,SSW,192,0.0,4.0,95,0.00,,,0.00,meteohub,2013-04-14 08:22:00,
2013-04-14 04:28:00,75.2,73.6,29.94,South,173,1.0,3.0,95,0.00,,,0.00,meteohub,2013-04-14 08:28:00,
2013-04-14 04:33:00,75.2,73.6,29.94,SE,127,0.0,4.0,95,0.00,,,0.00,meteohub,2013-04-14 08:33:00,
2013-04-14 04:38:00,75.2,73.4,29.94,South,173,0.0,4.0,94,0.00,,,0.00,meteohub,2013-04-14 08:38:00,
2013-04-14 04:43:00,75.4,73.6,29.94,SE,143,0.0,5.0,94,0.00,,,0.00,meteohub,2013-04-14 08:43:00,
2013-04-14 04:48:00,75.4,73.6,29.94,SSE,157,0.0,5.0,94,0.00,,,0.00,meteohub,2013-04-14 08:48:00,
2013-04-14 04:53:00,75.4,73.6,29.93,South,177,0.0,5.0,94,0.00,,,0.00,meteohub,2013-04-14 08:53:00,
2013-04-14 04:58:00,75.6,73.8,29.94,SE,135,0.0,3.0,94,0.00,,,0.00,meteohub,2013-04-14 08:58:00,
2013-04-14 05:03:00,75.6,73.8,29.94,SSE,159,1.0,4.0,94,0.00,,,0.00,meteohub,2013-04-14 09:03:00,
2013-04-14 05:08:00,75.6,73.8,29.94,SE,135,0.0,4.0,94,0.00,,,0.00,meteohub,2013-04-14 09:08:00,
2013-04-14 05:13:00,75.6,73.8,29.93,SE,135,0.0,4.0,94,0.00,,,0.00,meteohub,2013-04-14 09:13:00,
2013-04-14 05:18:00,75.6,73.8,29.94,SSW,192,2.0,4.0,94,0.00,,,0.00,meteohub,2013-04-14 09:18:00,
2013-04-14 05:23:00,75.6,73.8,29.94,South,182,7.0,8.0,94,0.00,,,0.00,meteohub,2013-04-14 09:23:00,
2013-04-14 05:28:00,75.6,73.8,29.94,SSE,158,2.0,8.0,94,0.00,,,0.00,meteohub,2013-04-14 09:28:00,
2013-04-14 05:33:00,75.4,73.2,29.94,South,186,3.0,8.0,93,0.00,,,0.00,meteohub,2013-04-14 09:33:00,
2013-04-14 05:38:00,75.0,72.5,29.94,SSW,204,0.0,7.0,92,0.00,,,0.00,meteohub,2013-04-14 09:38:00,
2013-04-14 05:43:00,74.8,72.0,29.94,SSE,153,0.0,5.0,91,0.00,,,0.00,meteohub,2013-04-14 09:43:00,
2013-04-14 05:48:00,74.8,72.0,29.94,SE,130,2.0,5.0,91,0.00,,,0.00,meteohub,2013-04-14 09:48:00,
2013-04-14 05:53:00,74.8,72.3,29.94,SSW,200,0.0,5.0,92,0.00,,,0.00,meteohub,2013-04-14 09:53:00,
2013-04-14 05:58:00,74.8,72.3,29.94,SSW,192,0.0,4.0,92,0.00,,,0.00,meteohub,2013-04-14 09:58:00,
2013-04-14 06:03:00,74.8,72.3,29.94,SSW,194,3.0,4.0,92,0.00,,,0.00,meteohub,2013-04-14 10:03:00,
2013-04-14 06:08:00,75.0,72.9,29.94,SSE,159,0.0,4.0,93,0.00,,,0.00,meteohub,2013-04-14 10:08:00,
2013-04-14 06:13:00,75.0,72.9,29.94,SSE,160,0.0,3.0,93,0.00,,,0.00,meteohub,2013-04-14 10:13:00,
2013-04-14 06:18:00,75.0,73.2,29.94,SSE,163,0.0,3.0,94,0.00,,,0.00,meteohub,2013-04-14 10:18:00,
2013-04-14 06:23:00,75.0,73.2,29.94,South,185,1.0,3.0,94,0.00,,,0.00,meteohub,2013-04-14 10:23:00,
2013-04-14 06:28:00,75.2,73.4,29.94,SSW,195,1.0,4.0,94,0.00,,,0.00,meteohub,2013-04-14 10:28:00,
2013-04-14 06:33:00,75.2,73.4,29.93,SSE,155,0.0,6.0,94,0.00,,,0.00,meteohub,2013-04-14 10:33:00,
2013-04-14 06:38:00,75.0,72.9,29.93,SSE,151,3.0,6.0,93,0.00,,,0.00,meteohub,2013-04-14 10:38:00,
2013-04-14 06:43:00,75.0,72.9,29.94,SSE,153,2.0,6.0,93,0.00,,,0.00,meteohub,2013-04-14 10:43:00,
2013-04-14 06:48:00,75.0,72.9,29.94,South,189,4.0,4.0,93,0.00,,,0.00,meteohub,2013-04-14 10:48:00,
2013-04-14 06:53:00,75.0,72.9,29.94,SE,134,1.0,6.0,93,0.00,,,0.00,meteohub,2013-04-14 10:53:00,
2013-04-14 06:58:00,75.0,72.9,29.94,SSE,161,2.0,6.0,93,0.00,,,0.00,meteohub,2013-04-14 10:58:00,
2013-04-14 07:03:00,75.0,72.9,29.94,SSE,160,0.0,6.0,93,0.00,,,0.00,meteohub,2013-04-14 11:03:00,
2013-04-14 07:08:00,75.0,72.9,29.94,South,175,4.0,6.0,93,0.00,,,0.00,meteohub,2013-04-14 11:08:00,
2013-04-14 07:13:00,75.0,72.9,29.94,South,169,0.0,6.0,93,0.00,,,0.00,meteohub,2013-04-14 11:13:00,
2013-04-14 07:19:00,75.0,72.9,29.94,South,177,0.0,4.0,93,0.00,,,0.00,meteohub,2013-04-14 11:19:00,
2013-04-14 07:23:00,75.2,73.0,29.94,SSE,165,4.0,4.0,93,0.00,,,0.00,meteohub,2013-04-14 11:23:00,
2013-04-14 07:28:00,75.6,73.8,29.94,SSE,157,2.0,5.0,94,0.00,,,0.00,meteohub,2013-04-14 11:28:00,
2013-04-14 07:34:00,75.6,73.4,29.94,SE,138,0.0,5.0,93,0.00,,,0.00,meteohub,2013-04-14 11:34:00,
2013-04-14 07:39:00,75.7,73.6,29.94,South,186,1.0,5.0,93,0.00,,,0.00,meteohub,2013-04-14 11:39:00,
2013-04-14 07:44:00,76.1,73.9,29.94,SSW,194,2.0,9.0,93,0.00,,,0.00,meteohub,2013-04-14 11:44:00,
2013-04-14 07:48:00,76.5,74.3,29.94,SW,235,2.0,9.0,93,0.00,,,0.00,meteohub,2013-04-14 11:48:00,
2013-04-14 07:54:00,76.5,73.9,29.95,South,176,5.0,9.0,92,0.00,,,0.00,meteohub,2013-04-14 11:54:00,
2013-04-14 07:59:00,76.6,74.1,29.94,South,181,5.0,8.0,92,0.00,,,0.00,meteohub,2013-04-14 11:59:00,
2013-04-14 08:03:00,76.8,73.9,29.94,ESE,123,1.0,8.0,91,0.00,,,0.00,meteohub,2013-04-14 12:03:00,
2013-04-14 08:09:00,77.0,74.1,29.95,South,178,2.0,8.0,91,0.00,,,0.00,meteohub,2013-04-14 12:09:00,
2013-04-14 08:14:00,77.2,74.3,29.95,ESE,123,1.0,8.0,91,0.00,,,0.00,meteohub,2013-04-14 12:14:00,
2013-04-14 08:19:00,77.4,74.5,29.95,SSE,156,1.0,8.0,91,0.00,,,0.00,meteohub,2013-04-14 12:19:00,
2013-04-14 08:24:00,77.5,74.7,29.95,South,184,5.0,7.0,91,0.00,,,0.00,meteohub,2013-04-14 12:24:00,
2013-04-14 08:29:00,77.7,74.8,29.95,SSE,167,5.0,7.0,91,0.00,,,0.00,meteohub,2013-04-14 12:29:00,
2013-04-14 08:34:00,78.1,74.8,29.96,ESE,122,1.0,7.0,90,0.00,,,0.00,meteohub,2013-04-14 12:34:00,
2013-04-14 08:39:00,78.3,75.0,29.96,South,177,3.0,8.0,90,0.00,,,0.00,meteohub,2013-04-14 12:39:00,
2013-04-14 08:44:00,78.4,74.8,29.96,ESE,117,1.0,8.0,89,0.00,,,0.00,meteohub,2013-04-14 12:44:00,
2013-04-14 08:49:00,78.6,75.0,29.96,SW,220,4.0,8.0,89,0.00,,,0.00,meteohub,2013-04-14 12:49:00,
2013-04-14 08:54:00,79.2,75.6,29.96,South,187,0.0,8.0,89,0.00,,,0.00,meteohub,2013-04-14 12:54:00,
2013-04-14 08:59:00,79.5,75.4,29.96,SSE,147,5.0,7.0,87,0.00,,,0.00,meteohub,2013-04-14 12:59:00,
2013-04-14 09:04:00,79.7,75.6,29.96,SSE,148,3.0,10.0,87,0.00,,,0.00,meteohub,2013-04-14 13:04:00,
2013-04-14 09:09:00,79.7,75.2,29.96,SSW,202,1.0,10.0,86,0.00,,,0.00,meteohub,2013-04-14 13:09:00,
2013-04-14 09:14:00,79.7,75.2,29.96,SSE,158,2.0,10.0,86,0.00,,,0.00,meteohub,2013-04-14 13:14:00,
2013-04-14 09:19:00,79.9,75.4,29.97,SSE,164,9.0,10.0,86,0.00,,,0.00,meteohub,2013-04-14 13:19:00,
2013-04-14 09:24:00,79.9,75.4,29.96,SW,223,4.0,10.0,86,0.00,,,0.00,meteohub,2013-04-14 13:24:00,
2013-04-14 09:29:00,80.1,75.6,29.97,SSE,164,2.0,10.0,86,0.00,,,0.00,meteohub,2013-04-14 13:29:00,
2013-04-14 09:34:00,80.2,75.4,29.96,SSE,160,6.0,10.0,85,0.00,,,0.00,meteohub,2013-04-14 13:34:00,
2013-04-14 09:39:00,80.4,75.6,29.96,SSE,164,4.0,10.0,85,0.00,,,0.00,meteohub,2013-04-14 13:39:00,
2013-04-14 09:44:00,80.6,75.7,29.96,SSE,167,1.0,10.0,85,0.00,,,0.00,meteohub,2013-04-14 13:44:00,
2013-04-14 09:49:00,80.8,75.6,29.96,SSE,167,2.0,10.0,84,0.00,,,0.00,meteohub,2013-04-14 13:49:00,
2013-04-14 09:54:00,80.6,75.4,29.96,SSW,213,1.0,9.0,84,0.00,,,0.00,meteohub,2013-04-14 13:54:00,
2013-04-14 09:59:00,80.8,75.6,29.96,ESE,112,8.0,9.0,84,0.00,,,0.00,meteohub,2013-04-14 13:59:00,
2013-04-14 10:04:00,81.0,75.7,29.96,ESE,121,2.0,9.0,84,0.00,,,0.00,meteohub,2013-04-14 14:04:00,
2013-04-14 10:09:00,81.1,75.6,29.96,East,82,1.0,9.0,83,0.00,,,0.00,meteohub,2013-04-14 14:09:00,
2013-04-14 10:14:00,81.5,75.9,29.96,SE,139,2.0,8.0,83,0.00,,,0.00,meteohub,2013-04-14 14:14:00,
2013-04-14 10:19:00,81.7,75.6,29.96,SSE,159,4.0,8.0,82,0.00,,,0.00,meteohub,2013-04-14 14:19:00,
2013-04-14 10:24:00,81.5,75.4,29.97,SW,232,2.0,8.0,82,0.00,,,0.00,meteohub,2013-04-14 14:24:00,
2013-04-14 10:29:00,81.9,75.7,29.97,SSW,205,2.0,11.0,82,0.00,,,0.00,meteohub,2013-04-14 14:29:00,
2013-04-14 10:34:00,82.2,75.7,29.97,South,189,6.0,11.0,81,0.00,,,0.00,meteohub,2013-04-14 14:34:00,
2013-04-14 10:39:00,82.0,75.6,29.97,SE,134,3.0,13.0,81,0.00,,,0.00,meteohub,2013-04-14 14:39:00,
2013-04-14 10:44:00,82.4,75.9,29.97,South,169,2.0,13.0,81,0.00,,,0.00,meteohub,2013-04-14 14:44:00,
2013-04-14 10:49:00,82.0,75.6,29.97,South,179,3.0,13.0,81,0.00,,,0.00,meteohub,2013-04-14 14:49:00,
2013-04-14 10:54:00,81.7,75.6,29.97,SSW,194,4.0,13.0,82,0.00,,,0.00,meteohub,2013-04-14 14:54:00,
2013-04-14 10:59:00,81.9,75.7,29.98,SSW,203,3.0,13.0,82,0.00,,,0.00,meteohub,2013-04-14 14:59:00,
2013-04-14 11:04:00,82.0,75.2,29.97,SSE,165,1.0,13.0,80,0.00,,,0.00,meteohub,2013-04-14 15:04:00,
2013-04-14 11:09:00,82.2,75.0,29.97,ESE,117,2.0,12.0,79,0.00,,,0.00,meteohub,2013-04-14 15:09:00,
2013-04-14 11:14:00,82.4,75.6,29.97,East,94,6.0,13.0,80,0.00,,,0.00,meteohub,2013-04-14 15:14:00,
2013-04-14 11:19:00,82.4,75.2,29.97,ESE,113,4.0,14.0,79,0.00,,,0.00,meteohub,2013-04-14 15:19:00,
2013-04-14 11:24:00,82.2,74.7,29.97,South,179,3.0,14.0,78,0.00,,,0.00,meteohub,2013-04-14 15:24:00,
2013-04-14 11:29:00,82.2,75.4,29.97,South,186,9.0,14.0,80,0.00,,,0.00,meteohub,2013-04-14 15:29:00,
2013-04-14 11:34:00,82.2,75.4,29.97,SSW,211,3.0,13.0,80,0.00,,,0.00,meteohub,2013-04-14 15:34:00,
2013-04-14 11:39:00,82.6,75.4,29.97,South,181,9.0,13.0,79,0.00,,,0.00,meteohub,2013-04-14 15:39:00,
2013-04-14 11:44:00,82.4,75.2,29.97,ESE,123,7.0,12.0,79,0.00,,,0.00,meteohub,2013-04-14 15:44:00,
2013-04-14 11:49:00,82.6,75.0,29.97,SSE,154,4.0,12.0,78,0.00,,,0.00,meteohub,2013-04-14 15:49:00,
2013-04-14 11:55:00,82.6,75.0,29.97,SSE,167,4.0,13.0,78,0.00,,,0.00,meteohub,2013-04-14 15:55:00,
2013-04-14 12:00:00,82.8,74.8,29.97,SSE,149,7.0,13.0,77,0.00,,,0.00,meteohub,2013-04-14 16:00:00,
2013-04-14 12:05:00,82.8,74.8,29.97,South,188,6.0,13.0,77,0.00,,,0.00,meteohub,2013-04-14 16:05:00,
2013-04-14 12:10:00,83.1,75.2,29.97,SSE,168,6.0,12.0,77,0.00,,,0.00,meteohub,2013-04-14 16:10:00,
2013-04-14 12:15:00,83.1,75.2,29.97,South,178,6.0,12.0,77,0.00,,,0.00,meteohub,2013-04-14 16:15:00,
2013-04-14 12:20:00,83.3,75.4,29.97,SSW,208,7.0,12.0,77,0.00,,,0.00,meteohub,2013-04-14 16:20:00,
2013-04-14 12:25:00,82.9,75.4,29.97,SE,125,8.0,11.0,78,0.00,,,0.00,meteohub,2013-04-14 16:25:00,
2013-04-14 12:30:00,82.8,74.8,29.97,South,178,3.0,12.0,77,0.00,,,0.00,meteohub,2013-04-14 16:30:00,
2013-04-14 12:35:00,82.8,75.2,29.97,SSW,194,0.0,15.0,78,0.00,,,0.00,meteohub,2013-04-14 16:35:00,
2013-04-14 12:40:00,82.9,75.0,29.97,SE,138,4.0,15.0,77,0.00,,,0.00,meteohub,2013-04-14 16:40:00,
2013-04-14 12:45:00,82.8,74.8,29.97,SE,139,4.0,15.0,77,0.00,,,0.00,meteohub,2013-04-14 16:45:00,
2013-04-14 12:50:00,82.8,74.8,29.97,South,169,6.0,13.0,77,0.00,,,0.00,meteohub,2013-04-14 16:50:00,
2013-04-14 12:55:00,82.8,74.8,29.97,South,185,7.0,11.0,77,0.00,,,0.00,meteohub,2013-04-14 16:55:00,
2013-04-14 13:00:00,83.1,74.8,29.97,SE,136,2.0,11.0,76,0.00,,,0.00,meteohub,2013-04-14 17:00:00,
2013-04-14 13:05:00,83.1,75.2,29.97,South,187,5.0,13.0,77,0.00,,,0.00,meteohub,2013-04-14 17:05:00,
2013-04-14 13:10:00,83.5,75.0,29.96,SE,138,4.0,13.0,76,0.00,,,0.00,meteohub,2013-04-14 17:10:00,
2013-04-14 13:15:00,83.8,75.4,29.96,SE,135,4.0,13.0,76,0.00,,,0.00,meteohub,2013-04-14 17:15:00,
2013-04-14 13:20:00,84.0,75.2,29.96,East,90,5.0,11.0,75,0.00,,,0.00,meteohub,2013-04-14 17:20:00,
2013-04-14 13:25:00,83.8,75.0,29.96,South,190,4.0,11.0,75,0.00,,,0.00,meteohub,2013-04-14 17:25:00,
2013-04-14 13:30:00,83.5,75.0,29.96,South,172,2.0,12.0,76,0.00,,,0.00,meteohub,2013-04-14 17:30:00,
2013-04-14 13:35:00,83.7,75.2,29.95,SSE,162,4.0,13.0,76,0.00,,,0.00,meteohub,2013-04-14 17:35:00,
2013-04-14 13:40:00,83.5,75.0,29.95,SSW,204,8.0,13.0,76,0.00,,,0.00,meteohub,2013-04-14 17:40:00,
2013-04-14 13:45:00,83.5,75.6,29.95,SE,136,10.0,13.0,77,0.00,,,0.00,meteohub,2013-04-14 17:45:00,
2013-04-14 13:50:00,83.8,75.4,29.94,South,184,2.0,12.0,76,0.00,,,0.00,meteohub,2013-04-14 17:50:00,
2013-04-14 13:55:00,84.0,75.2,29.94,SSE,167,8.0,12.0,75,0.00,,,0.00,meteohub,2013-04-14 17:55:00,
2013-04-14 14:00:00,84.2,75.7,29.94,SE,138,0.0,12.0,76,0.00,,,0.00,meteohub,2013-04-14 18:00:00,
2013-04-14 14:06:00,84.7,75.6,29.94,SSW,202,4.0,12.0,74,0.00,,,0.00,meteohub,2013-04-14 18:06:00,
2013-04-14 14:11:00,84.6,74.5,29.94,SSW,207,7.0,12.0,72,0.00,,,0.00,meteohub,2013-04-14 18:11:00,
2013-04-14 14:16:00,84.6,75.0,29.94,SE,132,7.0,12.0,73,0.00,,,0.00,meteohub,2013-04-14 18:16:00,
2013-04-14 14:21:00,84.6,75.0,29.94,SW,219,5.0,12.0,73,0.00,,,0.00,meteohub,2013-04-14 18:21:00,
2013-04-14 14:26:00,84.4,74.8,29.94,SE,136,2.0,12.0,73,0.00,,,0.00,meteohub,2013-04-14 18:26:00,
2013-04-14 14:31:00,84.6,75.0,29.94,SW,229,4.0,12.0,73,0.00,,,0.00,meteohub,2013-04-14 18:31:00,
2013-04-14 14:36:00,84.4,75.2,29.93,SSE,160,9.0,13.0,74,0.00,,,0.00,meteohub,2013-04-14 18:36:00,
2013-04-14 14:41:00,84.4,75.2,29.93,South,183,2.0,13.0,74,0.00,,,0.00,meteohub,2013-04-14 18:41:00,
2013-04-14 14:46:00,84.6,75.4,29.93,SE,142,3.0,13.0,74,0.00,,,0.00,meteohub,2013-04-14 18:46:00,
2013-04-14 14:51:00,84.4,74.8,29.93,SSW,207,7.0,13.0,73,0.00,,,0.00,meteohub,2013-04-14 18:51:00,
2013-04-14 14:56:00,84.4,75.2,29.93,South,189,2.0,13.0,74,0.00,,,0.00,meteohub,2013-04-14 18:56:00,
2013-04-14 15:01:00,84.4,74.8,29.93,SSE,151,5.0,12.0,73,0.00,,,0.00,meteohub,2013-04-14 19:01:00,
2013-04-14 15:06:00,84.0,74.5,29.93,SSE,163,4.0,13.0,73,0.00,,,0.00,meteohub,2013-04-14 19:06:00,
2013-04-14 15:12:00,84.0,74.8,29.93,South,170,4.0,13.0,74,0.00,,,0.00,meteohub,2013-04-14 19:12:00,
2013-04-14 15:17:00,84.4,75.2,29.93,SSW,206,7.0,13.0,74,0.00,,,0.00,meteohub,2013-04-14 19:17:00,
2013-04-14 15:22:00,84.4,74.3,29.93,SE,142,5.0,11.0,72,0.00,,,0.00,meteohub,2013-04-14 19:22:00,
2013-04-14 15:27:00,84.2,74.7,29.92,ESE,112,5.0,11.0,73,0.00,,,0.00,meteohub,2013-04-14 19:27:00,
2013-04-14 15:32:00,84.4,75.2,29.92,SW,228,4.0,11.0,74,0.00,,,0.00,meteohub,2013-04-14 19:32:00,
2013-04-14 15:37:00,84.0,74.5,29.92,ESE,104,10.0,11.0,73,0.00,,,0.00,meteohub,2013-04-14 19:37:00,
2013-04-14 15:42:00,84.0,74.5,29.92,ESE,111,2.0,11.0,73,0.00,,,0.00,meteohub,2013-04-14 19:42:00,
2013-04-14 15:47:00,84.2,74.1,29.92,SSE,166,4.0,11.0,72,0.00,,,0.00,meteohub,2013-04-14 19:47:00,
2013-04-14 15:52:00,83.8,74.3,29.91,SE,134,4.0,13.0,73,0.00,,,0.00,meteohub,2013-04-14 19:52:00,
2013-04-14 15:57:00,84.0,74.5,29.91,SE,134,5.0,13.0,73,0.00,,,0.00,meteohub,2013-04-14 19:57:00,
2013-04-14 16:02:00,83.7,74.5,29.91,SE,125,3.0,13.0,74,0.00,,,0.00,meteohub,2013-04-14 20:02:00,
2013-04-14 16:07:00,83.5,74.3,29.91,South,174,4.0,11.0,74,0.00,,,0.00,meteohub,2013-04-14 20:07:00,
2013-04-14 16:12:00,82.9,74.1,29.91,SSW,199,4.0,11.0,75,0.00,,,0.00,meteohub,2013-04-14 20:12:00,
2013-04-14 16:17:00,82.9,74.7,29.91,South,186,7.0,10.0,76,0.00,,,0.00,meteohub,2013-04-14 20:17:00,
2013-04-14 16:22:00,83.1,74.8,29.91,South,191,4.0,11.0,76,0.00,,,0.00,meteohub,2013-04-14 20:22:00,
2013-04-14 16:27:00,83.3,74.5,29.91,SSE,163,3.0,11.0,75,0.00,,,0.00,meteohub,2013-04-14 20:27:00,
2013-04-14 16:32:00,83.1,74.3,29.91,SE,141,0.0,12.0,75,0.00,,,0.00,meteohub,2013-04-14 20:32:00,
2013-04-14 16:37:00,83.3,74.5,29.91,South,179,2.0,12.0,75,0.00,,,0.00,meteohub,2013-04-14 20:37:00,
2013-04-14 16:42:00,82.9,74.1,29.91,SE,140,3.0,12.0,75,0.00,,,0.00,meteohub,2013-04-14 20:42:00,
2013-04-14 16:47:00,83.1,74.8,29.91,SSW,204,5.0,11.0,76,0.00,,,0.00,meteohub,2013-04-14 20:47:00,
2013-04-14 16:52:00,83.1,74.3,29.91,SSW,192,4.0,11.0,75,0.00,,,0.00,meteohub,2013-04-14 20:52:00,
2013-04-14 16:57:00,83.1,73.9,29.91,SSE,160,3.0,11.0,74,0.00,,,0.00,meteohub,2013-04-14 20:57:00,
2013-04-14 17:02:00,83.1,73.9,29.91,SE,128,4.0,11.0,74,0.00,,,0.00,meteohub,2013-04-14 21:02:00,
2013-04-14 17:07:00,82.8,73.9,29.91,ENE,64,4.0,13.0,75,0.00,,,0.00,meteohub,2013-04-14 21:07:00,
2013-04-14 17:13:00,82.8,74.5,29.91,South,178,2.0,13.0,76,0.00,,,0.00,meteohub,2013-04-14 21:13:00,
2013-04-14 17:18:00,82.6,74.3,29.91,South,182,2.0,13.0,76,0.00,,,0.00,meteohub,2013-04-14 21:18:00,
2013-04-14 17:23:00,82.6,73.8,29.91,East,86,6.0,10.0,75,0.00,,,0.00,meteohub,2013-04-14 21:23:00,
2013-04-14 17:28:00,82.6,74.3,29.91,SE,129,5.0,11.0,76,0.00,,,0.00,meteohub,2013-04-14 21:28:00,
2013-04-14 17:33:00,82.2,73.9,29.91,South,174,4.0,11.0,76,0.00,,,0.00,meteohub,2013-04-14 21:33:00,
2013-04-14 17:38:00,82.0,74.1,29.91,SSW,192,5.0,11.0,77,0.00,,,0.00,meteohub,2013-04-14 21:38:00,
2013-04-14 17:43:00,82.0,73.8,29.91,ESE,119,5.0,10.0,76,0.00,,,0.00,meteohub,2013-04-14 21:43:00,
2013-04-14 17:48:00,81.9,73.9,29.91,SSE,161,4.0,11.0,77,0.00,,,0.00,meteohub,2013-04-14 21:48:00,
2013-04-14 17:53:00,81.9,73.9,29.91,SE,140,2.0,13.0,77,0.00,,,0.00,meteohub,2013-04-14 21:53:00,
2013-04-14 17:58:00,81.9,74.3,29.91,SE,124,3.0,13.0,78,0.00,,,0.00,meteohub,2013-04-14 21:58:00,
2013-04-14 18:03:00,81.9,74.3,29.92,SE,146,4.0,13.0,78,0.00,,,0.00,meteohub,2013-04-14 22:03:00,
2013-04-14 18:09:00,81.7,74.1,29.92,SE,145,3.0,10.0,78,0.00,,,0.00,meteohub,2013-04-14 22:09:00,
2013-04-14 18:14:00,81.7,74.1,29.92,ESE,104,5.0,10.0,78,0.00,,,0.00,meteohub,2013-04-14 22:14:00,
2013-04-14 18:19:00,81.3,74.1,29.92,SSE,168,2.0,9.0,79,0.00,,,0.00,meteohub,2013-04-14 22:19:00,
2013-04-14 18:24:00,81.1,73.9,29.92,East,101,1.0,9.0,79,0.00,,,0.00,meteohub,2013-04-14 22:24:00,
2013-04-14 18:29:00,81.1,74.3,29.92,East,94,1.0,9.0,80,0.00,,,0.00,meteohub,2013-04-14 22:29:00,
2013-04-14 18:34:00,81.0,74.1,29.92,SSE,158,3.0,8.0,80,0.00,,,0.00,meteohub,2013-04-14 22:34:00,
2013-04-14 18:39:00,80.8,73.9,29.92,SSE,153,2.0,10.0,80,0.00,,,0.00,meteohub,2013-04-14 22:39:00,
2013-04-14 18:44:00,80.4,74.1,29.92,ESE,114,5.0,10.0,81,0.00,,,0.00,meteohub,2013-04-14 22:44:00,
2013-04-14 18:49:00,80.2,73.9,29.92,SSW,211,1.0,10.0,81,0.00,,,0.00,meteohub,2013-04-14 22:49:00,
2013-04-14 18:54:00,80.2,73.9,29.92,South,191,3.0,8.0,81,0.00,,,0.00,meteohub,2013-04-14 22:54:00,
2013-04-14 18:59:00,80.2,73.9,29.92,SSE,167,3.0,8.0,81,0.00,,,0.00,meteohub,2013-04-14 22:59:00,
2013-04-14 19:04:00,79.9,73.6,29.93,SSE,165,4.0,9.0,81,0.00,,,0.00,meteohub,2013-04-14 23:04:00,
2013-04-14 19:09:00,79.7,73.8,29.92,SE,135,0.0,9.0,82,0.00,,,0.00,meteohub,2013-04-14 23:09:00,
2013-04-14 19:14:00,79.5,73.9,29.92,East,86,2.0,9.0,83,0.00,,,0.00,meteohub,2013-04-14 23:14:00,
2013-04-14 19:19:00,79.3,73.8,29.92,SE,135,1.0,9.0,83,0.00,,,0.00,meteohub,2013-04-14 23:19:00,
2013-04-14 19:25:00,79.3,73.8,29.92,SSE,161,2.0,8.0,83,0.00,,,0.00,meteohub,2013-04-14 23:25:00,
2013-04-14 19:30:00,79.2,73.9,29.92,SSW,194,3.0,8.0,84,0.00,,,0.00,meteohub,2013-04-14 23:30:00,
2013-04-14 19:35:00,79.0,74.1,29.92,SSE,153,2.0,8.0,85,0.00,,,0.00,meteohub,2013-04-14 23:35:00,
2013-04-14 19:40:00,78.8,73.9,29.92,South,175,0.0,7.0,85,0.00,,,0.00,meteohub,2013-04-14 23:40:00,
2013-04-14 19:45:00,78.6,73.8,29.92,ESE,123,0.0,7.0,85,0.00,,,0.00,meteohub,2013-04-14 23:45:00,
2013-04-14 19:50:00,78.4,73.9,29.92,SE,131,2.0,7.0,86,0.00,,,0.00,meteohub,2013-04-14 23:50:00,
2013-04-14 19:55:00,78.3,73.8,29.92,ESE,121,1.0,7.0,86,0.00,,,0.00,meteohub,2013-04-14 23:55:00,
2013-04-14 20:00:00,78.3,73.8,29.92,SE,142,3.0,7.0,86,0.00,,,0.00,meteohub,2013-04-15 00:00:00,
2013-04-14 20:05:00,78.3,74.1,29.92,SE,131,2.0,7.0,87,0.00,,,0.00,meteohub,2013-04-15 00:05:00,
2013-04-14 20:10:00,78.1,73.9,29.92,SSE,163,3.0,7.0,87,0.00,,,0.00,meteohub,2013-04-15 00:10:00,
2013-04-14 20:15:00,78.1,73.9,29.92,South,173,0.0,7.0,87,0.00,,,0.00,meteohub,2013-04-15 00:15:00,
2013-04-14 20:20:00,78.1,73.9,29.91,ESE,109,4.0,8.0,87,0.00,,,0.00,meteohub,2013-04-15 00:20:00,
2013-04-14 20:25:00,78.1,74.3,29.92,SE,127,0.0,8.0,88,0.00,,,0.00,meteohub,2013-04-15 00:25:00,
2013-04-14 20:30:00,78.1,74.3,29.92,SSW,203,1.0,8.0,88,0.00,,,0.00,meteohub,2013-04-15 00:30:00,
2013-04-14 20:35:00,77.9,74.1,29.92,SE,140,3.0,6.0,88,0.00,,,0.00,meteohub,2013-04-15 00:35:00,
2013-04-14 20:40:00,77.9,74.1,29.92,SSE,160,1.0,7.0,88,0.00,,,0.00,meteohub,2013-04-15 00:40:00,
2013-04-14 20:45:00,77.9,74.1,29.92,ESE,111,0.0,7.0,88,0.00,,,0.00,meteohub,2013-04-15 00:45:00,
2013-04-14 20:51:00,77.9,74.1,29.93,ESE,108,3.0,8.0,88,0.00,,,0.00,meteohub,2013-04-15 00:51:00,
2013-04-14 20:56:00,77.9,74.1,29.93,ESE,109,1.0,8.0,88,0.00,,,0.00,meteohub,2013-04-15 00:56:00,
2013-04-14 21:01:00,77.9,74.1,29.93,South,169,3.0,9.0,88,0.00,,,0.00,meteohub,2013-04-15 01:01:00,
2013-04-14 21:06:00,77.9,74.1,29.94,South,188,0.0,9.0,88,0.00,,,0.00,meteohub,2013-04-15 01:06:00,
2013-04-14 21:11:00,77.9,74.1,29.94,SSW,193,0.0,9.0,88,0.00,,,0.00,meteohub,2013-04-15 01:11:00,
2013-04-14 21:16:00,77.9,74.1,29.94,SE,140,3.0,7.0,88,0.00,,,0.00,meteohub,2013-04-15 01:16:00,
2013-04-14 21:21:00,77.9,74.1,29.94,SE,126,1.0,7.0,88,0.00,,,0.00,meteohub,2013-04-15 01:21:00,
2013-04-14 21:26:00,77.7,73.9,29.94,SSW,211,0.0,7.0,88,0.00,,,0.00,meteohub,2013-04-15 01:26:00,
2013-04-14 21:31:00,77.7,73.9,29.94,ESE,117,1.0,8.0,88,0.00,,,0.00,meteohub,2013-04-15 01:31:00,
2013-04-14 21:36:00,77.7,73.9,29.94,South,190,3.0,8.0,88,0.00,,,0.00,meteohub,2013-04-15 01:36:00,
2013-04-14 21:41:00,77.9,74.5,29.95,South,183,2.0,8.0,89,0.00,,,0.00,meteohub,2013-04-15 01:41:00,
2013-04-14 21:46:00,77.9,74.1,29.95,East,91,3.0,6.0,88,0.00,,,0.00,meteohub,2013-04-15 01:46:00,
2013-04-14 21:51:00,77.9,74.1,29.94,ESE,123,0.0,6.0,88,0.00,,,0.00,meteohub,2013-04-15 01:51:00,
2013-04-14 21:57:00,77.7,73.9,29.94,South,175,3.0,6.0,88,0.00,,,0.00,meteohub,2013-04-15 01:57:00,
2013-04-14 22:02:00,77.7,73.9,29.94,SW,225,2.0,9.0,88,0.00,,,0.00,meteohub,2013-04-15 02:02:00,
2013-04-14 22:07:00,77.7,73.9,29.94,South,175,1.0,9.0,88,0.00,,,0.00,meteohub,2013-04-15 02:07:00,
2013-04-14 22:12:00,77.7,74.3,29.94,SSE,168,1.0,9.0,89,0.00,,,0.00,meteohub,2013-04-15 02:12:00,
2013-04-14 22:17:00,77.7,74.3,29.94,South,172,2.0,9.0,89,0.00,,,0.00,meteohub,2013-04-15 02:17:00,
2013-04-14 22:22:00,77.7,74.3,29.95,East,96,3.0,9.0,89,0.00,,,0.00,meteohub,2013-04-15 02:22:00,
2013-04-14 22:27:00,77.7,74.3,29.96,ESE,123,0.0,9.0,89,0.00,,,0.00,meteohub,2013-04-15 02:27:00,
2013-04-14 22:32:00,77.5,74.1,29.96,East,82,3.0,7.0,89,0.00,,,0.00,meteohub,2013-04-15 02:32:00,
2013-04-14 22:37:00,77.5,74.1,29.95,South,184,0.0,7.0,89,0.00,,,0.00,meteohub,2013-04-15 02:37:00,
2013-04-14 22:42:00,77.5,74.3,29.95,SSE,152,0.0,7.0,90,0.00,,,0.00,meteohub,2013-04-15 02:42:00,
2013-04-14 22:47:00,77.5,74.3,29.95,South,178,0.0,5.0,90,0.00,,,0.00,meteohub,2013-04-15 02:47:00,
2013-04-14 22:52:00,77.5,74.3,29.95,SE,146,3.0,5.0,90,0.00,,,0.00,meteohub,2013-04-15 02:52:00,
2013-04-14 22:57:00,77.5,74.3,29.96,ESE,119,0.0,6.0,90,0.00,,,0.00,meteohub,2013-04-15 02:57:00,
2013-04-14 23:02:00,77.5,74.3,29.96,SSE,155,0.0,6.0,90,0.00,,,0.00,meteohub,2013-04-15 03:02:00,
2013-04-14 23:07:00,77.5,74.3,29.96,SSE,163,0.0,6.0,90,0.00,,,0.00,meteohub,2013-04-15 03:07:00,
2013-04-14 23:12:00,77.5,74.3,29.96,SE,130,0.0,6.0,90,0.00,,,0.00,meteohub,2013-04-15 03:12:00,
2013-04-14 23:17:00,77.5,74.3,29.96,South,185,2.0,7.0,90,0.00,,,0.00,meteohub,2013-04-15 03:17:00,
2013-04-14 23:22:00,77.5,74.3,29.96,SE,136,0.0,7.0,90,0.00,,,0.00,meteohub,2013-04-15 03:22:00,
2013-04-14 23:27:00,77.5,74.3,29.96,South,188,1.0,7.0,90,0.00,,,0.00,meteohub,2013-04-15 03:27:00,
2013-04-14 23:32:00,77.5,74.3,29.96,South,184,1.0,5.0,90,0.00,,,0.00,meteohub,2013-04-15 03:32:00,
2013-04-14 23:37:00,77.4,74.1,29.96,South,171,0.0,3.0,90,0.00,,,0.00,meteohub,2013-04-15 03:37:00,
2013-04-14 23:42:00,77.4,74.1,29.97,South,171,0.0,3.0,90,0.00,,,0.00,meteohub,2013-04-15 03:42:00,
2013-04-14 23:47:00,77.4,74.5,29.97,South,173,0.0,3.0,91,0.00,,,0.00,meteohub,2013-04-15 03:47:00,
2013-04-14 23:53:00,77.4,74.5,29.96,South,175,1.0,3.0,91,0.00,,,0.00,meteohub,2013-04-15 03:53:00,
2013-04-14 23:58:00,77.2,74.3,29.96,South,171,0.0,3.0,91,0.00,,,0.00,meteohub,2013-04-15 03:58:00,